Simultaneous Nadir Overpasses (SNOs) Predictions

Prediction of SNOs between AURA and NPP Satellite Orbit:

Table of predicted SNOs for the next 14.0 days since TLE Epoch: 2/14/2014
Index Date (AURA) Time (AURA) Lat,Lon (AURA) SZA (AURA ) Date (NPP) Time (NPP) Lat,Lon (NPP) SZA (NPP ) Distance(km) Time Diff (sec)
1 02/15/2014 01:14:21 78.18, 50.96 107.33 02/15/2014 01:13:14 78.18, 50.98 107.38 0.49 67
2 02/15/2014 02:03:37 -78.66,-138.97 73.31 02/15/2014 02:03:47 -78.67,-138.85 73.34 2.84 10
3 02/17/2014 17:30:48 78.29, 167.39 106.26 02/17/2014 17:30:09 78.29, 167.38 106.30 0.12 39
4 02/17/2014 18:20:04 -78.77, -22.48 74.37 02/17/2014 18:20:42 -78.78, -22.37 74.43 2.51 38
5 02/20/2014 09:47:13 78.44, -75.98 105.13 02/20/2014 09:47:03 78.44, -76.00 105.14 0.66 10
6 02/20/2014 10:36:30 -78.87, 93.99 75.46 02/20/2014 10:37:37 -78.88, 94.08 75.53 2.21 67
7 02/23/2014 01:14:19 -78.26,-128.66 75.60 02/23/2014 01:13:21 -78.27,-128.53 75.58 2.99 58
8 02/23/2014 02:03:37 78.58, 40.65 103.97 02/23/2014 02:03:57 78.58, 40.61 103.97 1.16 20
9 02/25/2014 17:30:41 -78.40, -12.07 76.77 02/25/2014 17:30:14 -78.40, -11.97 76.77 2.42 27




NCC Satellite Simultaneous Nadir Overpasses (SNOs) Prediction Service
